Wind_Speed
2 1 14 15 11 12 13 6 12 6 4 7 8 6 7 4 5 8 7 7 6 9 8 10 13 7 9 10 15 16 18 19 22 23 23 23 25 26 25 24 22 21 20 21
1 9 12 11 13 5 14 8 4 3 3 5 6 10 8 6 9 10 10 8 8 5 5 7 10 6 6 10 10 12 17 19 21 23 22 21 22 25 29 28 26 24 24 24
1 5 17 12 10 4 8 12 5 7 4 2 6 6 7 4 4 7 9 9 9 13 9 6 10 13 8 10 16 17 17 21 23 23 22 18 16 17 14 21 22 22 23 23
1 7 17 8 9 8 7 12 8 13 10 6 1 4 5 8 9 9 15 11 11 11 6 2 3 9 12 14 14 16 18 19 20 21 24 23 21 17 18 19 20 21 22 21
1 2 12 10 7 7 5 15 7 4 5 3 1 2 4 1 13 13 11 11 13 10 8 8 7 11 12 11 12 14 14 17 19 19 21 22 20 18 16 15 15 13 15 18
1 3 2 3 5 7 8 11 10 4 3 2 5 5 4 4 8 11 14 16 16 15 13 11 10 9 7 9 11 14 13 13 14 15 16 17 19 19 17 17 16 15 16 15
2 1 2 4 5 3 14 17 5 4 3 4 1 4 7 5 6 7 10 14 13 13 14 13 10 13 14 13 13 12 15 14 11 10 9 9 10 10 10 11 12 13 14 14
4 3 5 4 3 5 16 6 4 7 6 4 2 5 5 6 6 6 5 5 3 7 7 10 12 16 21 21 16 15 13 13 11 9 7 5 4 6 7 8 9 9 10 11
4 4 3 5 6 3 1 2 3 6 3 3 3 5 8 6 7 3 7 6 7 7 7 10 13 17 20 21 19 17 15 11 10 9 7 5 4 4 3 3 5 6 7 8
3 5 5 3 6 6 3 3 3 2 4 2 0 3 3 3 2 5 4 7 6 4 7 8 11 15 17 18 17 16 14 14 11 9 8 7 5 4 4 4 3 3 3 4
6 1 5 2 4 4 2 2 4 4 2 3 3 3 4 3 3 7 7 6 6 5 7 8 10 13 16 16 16 14 13 13 13 11 9 8 6 5 4 3 3 3 3 4
6 1 4 1 1 5 0 4 3 4 4 2 2 3 3 4 5 5 7 4 2 5 8 10 14 16 14 12 10 11 11 11 11 11 10 8 6 4 3 2 2 3 3 4
3 2 4 3 2 4 3 2 4 4 3 6 5 4 3 4 3 2 3 3 5 7 7 7 9 11 14 15 13 11 11 11 10 9 9 8 7 5 3 2 2 3 3 3
2 2 2 4 4 4 5 6 6 5 3 6 4 5 7 8 7 5 0 4 7 8 9 8 7 10 13 15 14 13 12 12 12 11 7 7 5 5 5 3 3 3 3 5
1 2 2 3 1 3 1 3 7 6 5 6 6 8 12 6 7 6 2 5 6 9 9 9 8 9 11 12 14 14 14 12 11 10 9 6 6 6 5 5 4 4 3 5
1 2 1 3 2 2 2 5 7 9 5 4 3 9 5 6 2 4 4 6 8 8 9 9 9 11 14 18 19 18 16 14 11 9 9 8 7 7 7 6 6 6 6 6
2 3 2 2 2 2 5 5 7 4 4 7 8 8 5 3 4 6 5 8 9 9 11 11 12 16 20 24 23 21 18 15 13 11 11 12 11 8 6 5 5 6 6 6
3 3 2 1 2 1 3 1 3 7 3 8 6 4 5 5 5 6 6 8 10 8 8 9 12 16 22 23 22 20 19 18 17 15 14 13 10 9 7 7 7 8 9 8
2 3 3 2 2 5 2 1 2 2 4 4 11 11 5 3 1 5 5 7 8 8 7 13 20 22 22 23 23 22 20 19 17 16 16 15 13 10 9 9 10 10 11 13
4 4 3 1 1 2 2 2 2 2 3 2 4 7 5 5 4 4 4 1 4 4 6 12 15 17 20 23 24 23 21 20 19 17 16 14 12 9 10 11 12 13 15 17
1 2 3 3 1 5 5 4 3 2 3 3 2 4 5 4 3 1 2 4 4 3 3 5 9 14 17 21 24 23 21 21 18 14 13 12 11 10 12 13 15 17 18 16
3 4 2 2 1 5 3 1 1 4 3 2 2 1 3 3 2 3 4 4 4 4 4 5 8 9 13 18 21 20 20 17 15 15 15 14 12 12 14 16 18 19 19 17
1 4 4 6 5 4 4 5 2 2 2 2 2 2 4 4 2 3 2 3 2 3 4 4 8 10 11 15 17 18 16 15 16 16 16 14 13 14 15 19 21 21 19 19
2 2 1 1 1 4 4 4 4 1 0 1 3 2 2 3 4 4 3 2 3 3 4 6 8 10 11 13 14 14 13 15 17 18 17 15 16 16 17 19 21 23 22 21
2 2 2 3 5 6 3 3 1 2 2 4 5 4 4 4 3 2 2 2 3 5 6 9 10 11 11 12 13 13 14 16 17 16 17 18 18 18 19 20 22 24 24 24
3 3 3 3 2 2 4 5 1 4 3 3 4 4 5 6 5 4 4 5 3 3 4 7 10 11 11 12 14 14 14 16 18 18 19 20 20 21 21 21 19 22 19 18
Wind_Direction
34 194 197 198 179 246 162 123 171 164 146 169 205 218 245 206 219 239 229 212 209 188 228 266 279 240 206 207 217 210 223 222 226 218 215 222 227 232 237 237 238 241 244 245
77 231 200 177 196 272 156 147 143 98 106 177 184 224 241 202 216 214 211 225 211 226 262 253 251 233 252 223 223 212 227 227 224 220 221 222 231 239 239 241 242 245 246 250
172 286 158 184 200 212 189 162 154 157 113 67 136 262 247 219 235 217 223 228 225 213 238 249 268 268 259 240 228 223 226 230 231 226 220 221 231 237 237 238 239 241 248 250
314 289 155 120 183 179 179 187 140 141 163 186 340 247 245 214 217 219 222 218 231 248 240 107 226 265 268 268 245 234 224 224 226 228 226 228 227 230 242 248 253 255 254 252
246 148 159 178 129 143 261 166 147 99 97 118 306 268 265 150 226 223 233 216 220 226 242 244 240 251 247 240 227 220 212 213 218 217 218 222 230 239 247 252 255 258 254 251
285 293 228 133 118 156 292 118 103 93 112 234 200 189 256 198 205 222 222 219 215 212 219 234 218 200 207 209 209 202 189 190 201 205 212 221 229 238 246 252 256 257 256 254
135 260 89 97 71 234 261 150 135 158 195 220 195 184 260 242 235 221 213 222 219 209 212 206 189 175 180 184 183 184 173 166 178 184 193 205 217 228 236 245 250 253 255 253
153 170 176 124 102 299 152 170 153 165 174 164 88 221 241 236 247 218 257 268 249 216 204 196 183 179 180 174 175 172 165 155 157 158 162 179 208 229 239 246 246 244 245 249
177 90 151 146 146 229 127 56 156 107 40 101 191 266 283 260 283 293 265 269 248 245 220 192 182 178 169 167 168 169 158 154 152 152 153 152 151 154 160 191 213 222 234 242
316 107 161 156 139 158 270 205 81 17 121 180 0 278 235 42 335 317 288 251 252 224 202 165 154 146 159 160 160 159 154 150 146 145 148 148 147 146 149 155 155 172 182 181
318 267 134 140 170 159 181 192 62 101 69 140 141 260 212 212 288 289 293 274 255 193 165 140 118 129 150 153 153 155 152 149 147 144 142 140 142 153 167 180 190 198 201 194
215 106 115 134 150 151 38 227 152 125 167 62 106 282 184 226 264 278 291 281 202 173 148 135 133 139 141 143 147 151 152 153 149 146 148 147 147 145 154 178 205 210 216 218
202 231 120 110 53 112 220 199 104 100 83 187 141 254 163 251 326 70 307 248 146 132 127 129 136 150 155 159 160 161 164 162 158 157 154 152 148 150 156 173 178 181 179 183
215 292 154 170 199 136 178 177 174 135 136 153 215 285 293 291 320 338 184 192 167 155 152 153 157 169 172 169 169 170 176 173 173 162 165 160 160 155 152 154 156 149 146 151
101 180 149 44 146 105 136 174 170 175 187 170 206 214 247 278 290 315 274 163 169 161 166 175 177 181 182 184 178 186 185 182 184 171 164 171 162 156 146 153 138 143 143 139
341 22 99 20 70 94 240 209 203 219 221 246 194 266 199 255 286 282 227 179 177 188 187 182 183 189 191 192 193 190 191 185 191 184 173 166 161 155 154 141 130 132 131 125
74 137 81 312 343 315 309 227 189 183 198 205 218 241 177 226 239 265 217 204 198 196 191 189 196 197 196 198 198 195 194 189 191 189 183 174 172 173 168 161 165 155 141 142
127 98 58 113 6 323 246 49 215 212 224 216 249 224 214 226 236 257 227 197 203 198 196 202 196 202 209 204 200 197 192 190 191 190 186 186 185 184 182 175 172 166 159 156
32 114 87 126 212 287 39 11 123 166 308 234 242 258 225 217 241 279 236 206 209 201 195 210 213 212 211 205 200 194 190 193 194 195 193 192 192 185 184 182 175 166 158 155
79 76 108 129 142 239 241 323 203 161 331 352 221 270 236 168 214 257 332 117 139 184 209 213 209 209 208 204 198 193 191 194 201 203 201 199 198 197 197 190 179 172 170 161
39 101 142 173 253 284 249 261 171 82 249 321 294 276 179 186 204 299 40 47 64 71 110 161 182 196 201 193 192 193 197 205 212 209 206 205 206 207 204 190 183 176 172 163
174 134 182 103 191 291 191 65 174 219 281 277 353 79 169 108 76 65 65 72 80 85 90 127 153 171 183 189 192 195 203 210 205 202 201 201 206 202 195 191 183 182 176 172
290 185 182 172 213 243 244 226 200 238 270 354 37 32 130 135 118 135 125 119 110 116 118 145 158 158 173 187 198 201 209 201 198 198 200 201 200 203 198 193 187 184 183 182
261 175 203 74 270 249 264 264 244 290 42 76 77 81 106 103 143 140 135 162 154 162 171 173 171 177 183 194 202 213 207 202 201 197 199 199 201 201 199 198 196 194 190 189
214 135 179 270 302 303 311 251 277 106 87 80 64 65 51 106 75 83 114 195 210 195 197 200 196 199 204 201 208 210 207 203 202 205 207 203 205 195 201 204 204 202 202 199
185 192 156 231 256 220 274 319 266 143 132 99 114 73 55 62 60 35 37 20 354 274 230 219 221 223 218 214 214 212 211 210 209 204 203 200 199 198 206 204 203 209 212 211
Height
794 790 776 780 789 782 773 782 784 787 788 788 792 796 790 789 792 791 789 788 787 788 791 793 796 797 799 801 804 808 812 815 818 820 823 826 827 831 834 836 839 841 843 845
792 784 773 776 784 781 773 780 784 788 788 790 794 793 790 788 788 787 786 786 785 786 784 789 793 795 796 798 800 804 811 812 810 815 819 823 825 826 829 832 834 836 838 840
789 780 767 779 780 788 778 778 787 785 791 796 796 795 791 787 785 786 784 782 781 779 781 784 788 790 794 797 799 802 805 809 810 814 818 819 821 824 825 827 829 830 833 835
784 776 767 785 783 789 783 776 778 786 789 790 797 796 793 784 785 784 781 783 783 780 780 786 790 790 793 795 799 800 802 806 809 812 814 815 816 819 821 824 826 828 829 830
785 774 770 780 785 793 782 771 776 789 796 799 801 798 784 788 781 782 782 783 782 782 783 784 786 788 792 795 797 799 800 803 806 808 810 812 815 818 819 821 823 824 825 826
782 781 774 776 785 790 793 776 783 792 799 802 799 796 784 784 777 772 769 772 773 777 779 780 783 787 790 792 796 799 797 801 804 806 808 809 811 814 816 817 818 820 822 822
781 776 772 777 783 790 798 773 786 797 798 798 805 801 777 776 774 771 767 767 769 770 772 775 779 783 789 793 795 798 797 799 803 804 806 807 809 811 812 813 814 816 817 818
781 788 770 777 787 779 767 772 781 788 787 794 807 793 771 764 765 766 768 768 768 770 771 772 776 781 785 788 793 795 798 799 801 802 804 806 807 808 809 810 812 813 813 814
770 766 770 771 783 789 775 786 781 799 815 792 791 789 766 764 764 768 769 769 769 770 770 771 775 780 783 786 790 795 796 799 800 800 802 804 806 807 807 809 811 811 811 811
765 767 771 776 776 783 780 778 779 796 802 786 791 789 766 761 763 766 766 765 765 768 769 771 773 777 782 787 791 794 796 797 800 801 802 804 805 807 808 809 809 810 810 810
768 761 773 775 778 773 776 775 783 785 793 784 786 774 772 766 768 769 768 765 765 767 768 772 775 781 786 789 791 795 796 796 798 800 803 804 806 808 809 809 809 809 810 810
767 760 764 770 770 771 775 774 774 784 794 822 811 774 765 769 772 773 767 764 766 767 769 772 776 783 788 792 796 796 798 800 799 799 801 803 805 806 808 809 809 809 809 810
760 762 762 769 773 774 775 774 781 790 797 798 789 778 767 771 765 767 767 767 767 770 774 777 779 782 786 790 794 797 799 800 801 802 802 804 804 806 808 810 810 809 809 809
756 763 765 773 760 764 772 771 777 784 797 794 796 775 760 757 760 761 764 768 768 770 774 779 783 787 789 789 792 795 800 802 804 802 803 804 805 804 805 808 809 809 808 808
758 766 765 763 762 765 766 768 776 789 781 782 777 778 758 763 763 763 763 768 771 770 773 777 781 784 786 789 791 797 799 800 801 800 800 804 804 805 805 808 806 809 810 809
762 764 766 774 766 763 765 769 773 773 772 777 779 776 765 760 762 763 762 766 767 769 771 776 780 784 786 789 792 794 796 795 799 799 799 800 804 806 808 807 807 808 809 810
763 769 772 778 769 766 769 764 769 767 769 764 771 753 757 757 759 758 761 763 762 764 767 772 775 778 781 784 787 789 792 794 797 799 801 802 804 807 807 806 807 808 809 811
766 769 772 778 773 777 756 758 760 762 762 763 759 757 753 753 754 755 755 756 758 760 764 767 770 774 777 780 784 788 791 794 797 799 799 801 802 805 806 805 806 807 807 811
765 769 777 774 780 766 757 759 759 758 752 755 756 753 756 753 755 753 750 750 750 754 758 761 764 768 772 776 780 784 788 791 793 795 797 800 803 803 803 804 804 806 808 812
772 772 772 785 782 766 756 756 756 757 759 753 757 754 756 755 757 753 750 748 751 753 755 758 761 764 768 772 776 780 784 787 790 792 795 797 799 799 800 802 804 806 811 812
773 766 773 769 774 772 764 760 758 758 762 754 753 754 755 754 752 753 751 752 754 756 757 758 759 762 765 769 774 778 781 783 787 790 792 794 795 797 799 801 804 807 810 812
772 779 779 771 773 785 757 755 755 757 750 749 750 752 753 754 754 754 755 756 757 758 758 758 760 763 765 769 772 776 778 781 785 787 790 792 794 796 798 801 804 806 809 811
770 771 771 772 771 758 756 754 751 752 750 748 747 750 752 753 754 756 758 758 759 759 760 761 762 764 767 769 772 774 777 780 782 785 787 789 792 795 797 799 802 805 806 810
761 766 765 762 754 756 753 753 752 749 749 751 751 752 752 753 756 757 758 758 759 760 761 762 764 765 767 769 771 773 775 778 780 783 785 787 790 793 795 797 799 802 804 807
763 763 763 764 756 753 750 752 750 751 752 753 754 755 756 756 756 757 758 759 759 759 760 762 763 764 766 768 770 772 774 776 778 781 782 785 787 790 792 794 796 799 802 804
764 760 762 760 758 757 755 754 752 753 754 755 755 757 758 758 759 758 759 759 759 759 760 761 762 763 764 765 767 769 771 773 775 778 780 781 784 787 789 792 795 798 801 803